Location: Croisilles
(50.1998°N, 2.8793°E)
Time: 13:36:47
(UTC+00:00)

Meteor 1-24 Rocket - Pass Details

Date: 21 January 2021
Orbit: 791 x 927 km, 81.3° (Epoch: 26 February)

Event Time Altitude Azimuth Distance (km) Brightness Sun altitude
Rises 17:31:03 0° 190° (S) 3,310 7.2 -10.6°
Reaches altitude 10° 17:33:26 10° 190° (S) 2,372 6.4 -10.9°
Maximum altitude 17:38:46 89° 111° (ESE) 800 3.6 -11.8°
Drops below altitude 10° 17:44:06 10° 12° (NNE) 2,369 5.8 -12.6°
Sets 17:46:29 0° 13° (NNE) 3,307 6.5 -12.9°
